AirNav   Pilot Hours Calculator
 
 583 users online  

MO41 Landing Pad
Troy, Missouri, USA

GOING TO TROY?


FAA INFORMATION EFFECTIVE 11 AUGUST 2022

Location

FAA Identifier: MO41
Lat/Long: 38-58-55.6700N 090-57-47.1100W
38-58.927833N 090-57.785167W
38.9821306,-90.9630861
(estimated)
Elevation: 520 ft. / 158 m (estimated)
Variation: 01E (1995)
Time zone: UTC -5 (UTC -6 during Standard Time)
Zip code: 63379

Heliport Operations

Heliport use: Private use, MEDICAL USE.
Activation date: 10/1997
Control tower: no
ARTCC: KANSAS CITY CENTER
FSS: SAINT LOUIS FLIGHT SERVICE STATION
Attendance: CONTINUOUS
Wind indicator: yes
Segmented circle: no
Lights: FOR PERIMETER AND FLOOD LGTS CALL 314-528-8551.

Nearby radio navigation aids

VOR radial/distance  VOR name  Freq  Var
FTZr356/17.3FORISTELL VORTAC110.8005E
STLr287/23.6ST LOUIS VORTAC117.4001E

Heliport Services

Runway Information

Helipad H1

Dimensions: 50 x 50 ft. / 15 x 15 m
Surface: concrete
Runway edge lights: PERI
INGROUND GREEN LED LGTS AND FLOOD LGTS.
Latitude: 38-58.927833N
Longitude: 090-57.785167W
Elevation: 520.0 ft.
Traffic pattern: leftleft

Heliport Ownership and Management from official FAA records

Ownership: Privately-owned
Owner: LINCOLN COUNTY MEMORIAL HOSP.
1000 EAST CHERRY STREET
TROY, MO 63379
Phone 314-528-8551
MERCY HOSPITAL LINCOLN LEASES THIS PROPERTY FROM LINCOLN COUNTY MEDICAL CENTER AND IS IN CHARGE OF ALL OPERATIONS.
Manager: MARK THORN
1000 EAST CHERRY STREET
TROY, MO 63379
Phone 314-528-8551

Additional Remarks

OWNER DESIRES HELIPORT NOT BE CHARTED.
FOR CD CTC ST LOUIS APCH AT 314-890-1018.

Instrument Procedures

There are no published instrument procedures at MO41.

Some nearby airports with instrument procedures:

KFYG - Washington Regional Airport (24 nm S)
KSUS - Spirit of St Louis Airport (24 nm SE)
KSET - St Charles County Smartt Airport (25 nm E)
1H0 - Creve Coeur Airport (26 nm SE)
H19 - Bowling Green Municipal Airport (26 nm NW)
 
Loc | Ops | Rwys | IFR | FBO | Links
Com | Nav | Svcs | Stats | Notes
Area around MO41 (Landing Pad)
 
Road maps at: MapQuest Bing Google
 
Aerial photo
No photo
 
Sectional chart

 
Airport distance calculator
Flying to Landing Pad? Find the distance to fly.

From to MO41

Sunrise and sunset
Times for 15-Aug-2022
 Local
(UTC-5)
 Zulu
(UTC)
Morning civil twilight05:5010:50
Sunrise06:1811:18
Sunset19:5800:58
Evening civil twilight20:2701:27

Current date and time
Zulu (UTC)  15-Aug-2022 09:33:43
Local (UTC-5)  15-Aug-2022 04:33:43
 
METAR
KFYG 
24nm S 
150915Z AUTO 00000KT 9SM CLR 19/19 A2998 RMK AO2
KSUS 
25nm SE 
150854Z AUTO 25003KT 10SM OVC012 19/19 A2997 RMK AO2 SLP142 T01940189 53001
KSET 
25nm E 
150921Z AUTO VRB03KT 10SM SCT010 OVC015 21/18 A2998 RMK AO2 T02110183 $
KSTL 
31nm SE 
150851Z 03005KT 9SM BKN011 BKN190 22/19 A2998 RMK AO2 SLP140 T02170189 55000
KPPQ 
40nm N 
150915Z AUTO 01003KT 10SM SCT009 OVC015 20/20 A3002 RMK AO2 T01950195
KMYJ 
41nm W 
150915Z AUTO 00000KT 10SM CLR 18/18 A3002 RMK AO2
KALN 
44nm E 
150915Z AUTO 00000KT 5SM BR CLR 20/20 A2998 RMK AO2 T02000197
KCPS 
45nm SE 
150853Z AUTO 01004KT 10SM OVC012 21/19 A2997 RMK AO2 SLP143 T02110194 55001 TSNO
TAF
KSUS 
25nm SE 
150804Z 1508/1606 VRB03KT P6SM SCT030 SCT250 FM150900 03005KT P6SM SCT012 SCT250 FM151000 02005KT P6SM BKN012 FM151500 02006KT P6SM BKN025 FM151800 03008KT P6SM BKN040 FM160100 05005KT P6SM SCT035 BKN120
NOTAMs
Click for the latest NOTAMs
NOTAMs are issued by the DoD/FAA and will open in a separate window not controlled by AirNav.

 

 
 

Would you like to see your business listed on this page?

 If your business provides an interesting product or service to pilots, flight crews, aircraft, or users of the Landing Pad, you should consider listing it here.  To start the listing process, click on the button below
 
Add a business
 

Other Pages about Landing Pad

Update a link
 
Copyright © AirNav, LLC. All rights reserved. Privacy Policy  Contact